Utilitzem cookies pròpies i de tercers per millorar la seva experiència i els nostres serveis,analitzant la navegació en el nostre Lloc Web. Si continua navegant, vostè està acceptant el seu ús. Podeu obtenir més informació a la nostra Política de cookies. OK

En viu: El Trail 55 Km

El Trail 55 Km

Resultats provisionals

Potser que algun punt de control no tingui connexió a internet o la tingui deficient.

En aquest cas els passos no es podran visualitzar en directe i aniran apareixent a mesura que siguin transmesos des dels punts de control.

SANTA MARIA DE BESORA - Intermig


131
Pendents

147
Han passat

Homes

# - Posició P.C. - Participant Temps Dorsal

1 - 1 - LLUíS RUIZ OLLER 05:26:14 1331

2 - 2 - MARTI LAZARO CORDERO 05:26:30 1318

3 - 3 - NIL GAJA BALLARÓ 06:07:30 1080

4 - 4 - ALBERT GARCIA COBOS 06:17:44 1287

5 - 5 - DANI AGUIRRE ARDANAZ 06:17:53 1227

6 - 6 - DAVID TERUEL HUGUET 06:29:55 1327

7 - 7 - JORDI DELGADO SANGLAS 06:30:35 1062

8 - 8 - GUILLEM ALBA GARCIA 06:30:35 1105

9 - 9 - ARNAU AMADÓ BASSOLS 06:35:40 1165

10 - 10 - JESúS ÁLVAREZ MORALES 06:39:55 1245

11 - 11 - ABEL BELTRAN CAMPILLO 06:56:32 1211

12 - 13 - ALBERT SÁNCHEZ CRIBALLÉS 07:06:05 1134

13 - 14 - JORDI TORRENT PARCET 07:06:24 1210

14 - 15 - ERIC NAVARRO NAJAR 07:07:00 1006

15 - 16 - VICENS RIOS GALLART 07:08:57 1022

16 - 17 - CRISTIAN TERINGUER CANELA 07:11:14 1157

17 - 18 - DANIEL ALMONACID VICTORIANO 07:13:29 1015

18 - 19 - MIQUEL AULADELL DORDAL 07:14:28 1304

19 - 21 - NAïM BAULENAS SANGLAS 07:16:46 1202

20 - 23 - AITOR LóPEZ ALCAY 07:20:07 1335

21 - 24 - FRANCESC ROIG 07:20:50 1051

22 - 25 - UNAI ARTETA CASTELAR 07:26:58 1321

23 - 26 - OSCAR PEREZ MILLAN 07:28:04 1186

24 - 27 - XAVI BERNAL BAENA 07:28:29 1252

25 - 28 - CRISTIAN LOPEZ REYES 07:29:13 1056

26 - 29 - JORDI ALEMANY QUINTANA 07:29:23 1336

27 - 30 - GUILLEM PADROSA DANéS 07:33:51 1322

28 - 31 - CARLES VIDAL BARRERA 07:34:25 1103

29 - 32 - JORDI PLANS CONTEL 07:34:42 1117

30 - 33 - GERARD CIURANS TIRADO-MIGUEIZ 07:38:09 1226

31 - 34 - MARIUS GAMISSANS SALA 07:38:43 1147

32 - 35 - ENRIC SERRATOSA SOLà 07:39:05 1236

33 - 36 - JOSEP ZANUY 07:42:00 1187

34 - 37 - GERARD SALARICH CROSAS 07:42:34 1146

35 - 38 - RICARD CASTAñO SOLER 07:45:15 1267

36 - 39 - ANTONI BADIA MUNIENTE 07:46:12 1312

37 - 40 - MIQUEL MUZáS ESPUNY 07:49:32 1205

38 - 41 - ORIOL SALA PUIGDERRAJOLS 07:49:51 1119

39 - 42 - CARLES AMETLLER SULA 07:50:20 1128

40 - 43 - JOSEP MORENO CARRERA 07:50:20 1145

41 - 44 - CAIN CHRISTOFOROU 07:50:49 1201

42 - 46 - JORDI CASANOVAS SABARIEGO 07:53:28 1269

43 - 47 - RAMON CASERRAS GUERRERO 07:55:04 1153

44 - 49 - XAVIER MIRANDA MIRANDA BEGUE 07:57:07 1083

45 - 50 - ALBERT FABRé LLORENS 07:57:08 1191

46 - 51 - JAVI FERNANDEZ NAVARRO 08:00:59 1159

47 - 52 - SERGIO LEAL LOPEZ 08:00:59 1276

48 - 53 - RAüL JORGE ANGUITA 08:01:11 1254

49 - 54 - RAMóN BORREGUERO SANCHEZ 08:01:30 1230

50 - 55 - ALBERT TORRENS VIVES 08:05:16 1296

51 - 56 - LLORENç CAñíS 08:05:55 1213

52 - 57 - FERNANDO BARCOS NAVARRO 08:06:22 1172

53 - 58 - FRANCESC CAZORLA MUñOZ 08:08:05 1324

54 - 59 - GUILLEM LOPEZ FAGEDA 08:08:52 1148

55 - 60 - JOSEP GARCIA BORRAS 08:10:18 1093

56 - 61 - JOAN AGUSTí NúñEZ GENESTóS 08:11:24 1079

57 - 62 - ALEIX MORERA ROCA 08:12:13 1288

58 - 64 - OSCAR MORAL HIDALGO 08:15:36 1257

59 - 65 - RUBEN GARCIA CALDERON 08:17:40 1176

60 - 67 - DAVID MUñOZ CASELLAS 08:18:24 1319

61 - 68 - ISMAEL ALZINA CARRERAS 08:19:19 1299

62 - 70 - ANGEL ARUMI JIMENEZ 08:23:57 1325

63 - 72 - ALBERT ARUMí CATALà 08:23:57 1013

64 - 73 - RAFAEL LOPéZ RECHE 08:25:56 1242

65 - 75 - ROGER GIL BERTRAN 08:26:20 1231

66 - 76 - NIS MATEU BOIXADERAS 08:28:23 1139

67 - 77 - IGNASI SERRANO COLL 08:28:55 1323

68 - 78 - ANGEL BOTELLO ARMENGOL 08:30:56 1032

69 - 79 - DANIEL CARBONELL MERINO 08:31:15 1007

70 - 81 - SERGIO ASENSIO ROMERO 08:33:18 1184

71 - 82 - DANIEL RODRíGUEZ PEREZ 08:33:45 1010

72 - 83 - DAVID LEIVA ROLDAN 08:33:59 1075

73 - 84 - ROBERT PLANAS COLL 08:34:07 1049

74 - 85 - GUIFRÉ PORQUERES PLANELLES 08:35:33 1194

75 - 86 - DAVID GAZQUEZ GARCIA 08:35:55 1150

76 - 88 - JUAN MIGUEL DE LA TORRE MORALES 08:35:58 1216

77 - 89 - PAU SERRA ESCANDELL 08:36:50 1098

78 - 90 - GENíS BAYéS COSTA 08:36:57 1109

79 - 91 - YAN MAURAKH - 08:37:07 1328

80 - 92 - DIEGO BARROSO BERMEJO 08:37:09 1059

81 - 93 - DAVID MIGUEL SUAREZ 08:37:27 1197

82 - 94 - JORDI CASACUBERTA JIMENEZ 08:37:32 1282

83 - 95 - JOSEP BAROT CASANY 08:37:44 1021

84 - 96 - ANDREU LóPEZ ANADóN 08:37:50 1009

85 - 97 - ALEJANDRO AZORÍN RODRÍGUEZ 08:40:03 1100

86 - 98 - AURELIAN OANCEA . 08:40:55 1333

87 - 99 - XAVIER FABRE HEREDIA 08:41:42 1222

88 - 100 - ISIDRO GIL PÉREZ 08:41:43 1320

89 - 101 - JOSEP FARRERA SINFREU 08:41:46 1270

90 - 103 - MOISES OLMEDA 08:42:27 1008

91 - 104 - IGNACIO FABEIRO GONZALEZ 08:44:28 1277

92 - 105 - JONATHAN ANTONI CIERCO 08:51:40 1041

93 - 106 - NIL GRI LLEBOT 08:51:42 1045

94 - 107 - MARCEL BUENO BRUGUES 08:51:42 1133

95 - 108 - JULIA FRANCH NADAL 08:51:50 1268

96 - 109 - ENRIC COROMINAS I BOSCH 08:51:54 1046

97 - 110 - JOSE PEREZ GONZALEZ 08:51:57 1048

98 - 111 - ROGER PEIX SOLER 08:52:32 1033

99 - 113 - BERNAT GORDUN QUILES 08:53:35 1310

100 - 114 - PEDRO MOLINA RODRIGUEZ 08:54:17 1087

101 - 115 - ROBERTO BAÑOS GONZALEZ 09:00:30 1180

102 - 116 - DAVID DE LA COBA ALQUEZAR 09:00:34 1285

103 - 117 - JUAN ANTONIO CAZORLA ZAMBRANA 09:36:41 1289

104 - 118 - ALEIX DANOT CUCH 09:36:48 1260

105 - 119 - JAN OLIVERES GONZALEZ 09:37:30 1334

106 - 120 - JAUME BARRIACH GAYA 09:39:24 1174

107 - 121 - ISMAEL COBO PIMENTEL 09:39:27 1095

108 - 122 - TOMAS LOPEZ ZORNOZA 09:41:01 1154

109 - 123 - JORGE FERNANDEZ LIROLA 09:42:02 1061

110 - 124 - JOSE ANGEL REVELLES NúñEZ 09:42:23 1042

111 - 125 - MARC CASES 09:42:24 1261

112 - 126 - GERARD GARCIA MONTSERRATE 09:42:24 1263

113 - 127 - BRIAN MEDINA GRANADOS 09:42:38 1262

114 - 128 - DANIEL BRUN RAMIREZ 09:44:24 1018

115 - 129 - DAVID DIAZ MAYOR 09:44:26 1030

116 - 130 - XAVIER CAMPS BAGET 09:44:26 1253

117 - 132 - AITOR MATA MARTÍNEZ 09:44:52 1088

118 - 133 - ANTON VILARDELL AGULLó 09:45:00 1028

119 - 135 - ABEL CANALDA 09:49:57 1104

120 - 136 - DAVID CARRERAS GONZáLEZ 09:50:04 1108

121 - 137 - JOAN BULDó I POLLS 09:52:23 1166

122 - 138 - DAVID LEO HEREDIA 10:34:42 1106

123 - 139 - ALBERT CUTRINA RUBIO 10:38:36 1114

124 - 140 - MARC MASNOU RUBIó 10:38:39 1113

125 - 141 - TONI AMBLAS MOLINA 10:38:41 1294

126 - 142 - XEVI HERNANDEZ CLOTA 10:38:42 1115

127 - 143 - RAUL JIMENEZ RIVERO 10:40:00 1107

128 - 144 - ORIOL BAIXAS MORALES 11:05:35 1135

129 - 145 - XAVI ALVAREZ ESTANY 11:11:45 1264

130 - 146 - CARLES RAMOS SOLE 11:15:47 1003

131 - 147 - JULIO BERRAL LOPEZ 12:39:57 1178

132 - 148 - JOSEP NAVARRO GARCíA 12:51:37 1076

Dones

# - Posició P.C. - Participant Temps Dorsal

1 - 12 - ANGELS LLOBERA VICENS 06:57:36 1330

2 - 20 - CLAUDIA BOSCH RODERO 07:14:44 1224

3 - 22 - CAROLINA RIUS HERNANDEZ 07:18:01 1308

4 - 45 - SUSANA MORENO MORATONA 07:53:28 1151

5 - 48 - JELENA MALYSEVA -- 07:55:55 1300

6 - 63 - EROLA TORTADèS VERDAGUER 08:12:51 1002

7 - 66 - SANDRA MARIA VALENZUELA MENA 08:18:01 1195

8 - 69 - ROCIO RIOS ORTEGA 08:23:46 1043

9 - 72 - ELENA SANCHEZ GOMEZ 08:23:57 1315

10 - 74 - NEUS PEIRÓ PIFARRÉ 08:26:19 1311

11 - 80 - ALICIA GARRIDO SERRA 08:31:18 1313

12 - 87 - EVA MARIA TAPIA LUQUE 08:35:56 1239

13 - 102 - SARA GARRE PELEGRINA 08:42:26 1031

14 - 112 - TERESA FORN MUNNE 08:52:39 1290

15 - 131 - MARIBEL ALFARO NOGUERA 09:44:27 1234

Publicitat